Location: Albany
(35.0000°S, 118.0000°E)
Time: 12:57:58
(UTC-04:00)

Atlas Centaur 2 - Visible Passes

Search period start: 29 September 2016 00:00
Search period end: 09 October 2016 00:00
Orbit: 459 x 1315 km, 30.4° (Epoch: 29 September)

Date Brightness Start Highest point End Pass type
(mag) Time Alt. Az. Time Alt. Az. Time Alt. Az.
29 Sep 2.7 15:44:37 28° NE 15:44:37 28° NE 15:46:41 10° ENE visible
30 Sep 2.7 15:41:49 28° NE 15:41:49 28° NE 15:43:49 10° ENE visible
01 Oct 2.9 15:39:02 26° NE 15:39:02 26° NE 15:40:55 10° ENE visible
02 Oct 3.0 15:36:19 23° NE 15:36:19 23° NE 15:38:00 10° ENE visible
03 Oct 3.2 15:33:38 20° NE 15:33:38 20° NE 15:35:03 10° ENE visible
04 Oct 3.5 15:31:01 17° NE 15:31:01 17° NE 15:32:04 10° NE visible
05 Oct 3.8 15:28:29 13° NE 15:28:29 13° NE 15:29:01 10° NE visible
07 Oct 4.6 07:58:56 10° N 08:01:36 15° NNE 08:01:36 15° NNE visible
08 Oct 4.3 07:54:32 10° NNW 07:59:36 20° NNE 07:59:36 20° NNE visible
08 Oct 5.1 09:41:58 10° NW 09:42:19 11° NW 09:42:19 11° NW visible
